NR0A-4 Weather Reports


time (UTC)temp
C
wind
direction
speed
KPH
gust
KPH
rain 1hr
cm
rain 24hr
cm
rain mn
cm
humidity
%
barometer
mb
20180422121311 2 348 4.8 8.0 0.00 0.00 0.00 80 1024.5
20180422120811 2 349 3.2 4.8 0.00 0.00 0.00 80 1024.6
20180422120311 2 353 3.2 4.8 0.00 0.00 0.00 80 1024.5
20180422115811 2 345 3.2 8.0 0.00 0.00 0.00 80 1024.6
20180422115311 2 358 3.2 4.8 0.00 0.00 0.00 80 1024.5
20180422114811 2 1 1.6 1.6 0.00 0.00 0.00 80 1024.5
20180422114311 2 44 0.0 0.0 0.00 0.00 0.00 79 1024.4
20180422113811 2 353 0.0 0.0 0.00 0.00 0.00 79 1024.4
20180422113311 2 1 1.6 4.8 0.00 0.00 0.00 78 1024.4
20180422112811 2 348 4.8 8.0 0.00 0.00 0.00 78 1024.3
20180422112311 2 350 3.2 4.8 0.00 0.00 0.00 78 1024.3
20180422111811 2 344 4.8 9.7 0.00 0.00 0.00 77 1024.2
20180422111311 2 335 3.2 4.8 0.00 0.00 0.00 76 1024.2
20180422110811 2 344 1.6 3.2 0.00 0.00 0.00 76 1024.0
20180422110311 2 326 3.2 3.2 0.00 0.00 0.00 76 1024.2
20180422105811 2 335 1.6 1.6 0.00 0.00 0.00 77 1024.4
20180422105311 2 322 1.6 3.2 0.00 0.00 0.00 77 1024.4
20180422104811 2 342 1.6 3.2 0.00 0.00 0.00 76 1024.4
20180422104311 2 339 0.0 1.6 0.00 0.00 0.00 76 1024.3
20180422103811 2 338 1.6 3.2 0.00 0.00 0.00 76 1024.3
20180422103311 2 344 3.2 3.2 0.00 0.00 0.00 75 1024.2
20180422102811 2 355 3.2 3.2 0.00 0.00 0.00 75 1024.2
20180422102311 2 357 3.2 4.8 0.00 0.00 0.00 75 1024.2
20180422101811 2 8 3.2 4.8 0.00 0.00 0.00 75 1024.3
20180422101311 2 354 3.2 3.2 0.00 0.00 0.00 75 1024.2
20180422100811 2 337 1.6 3.2 0.00 0.00 0.00 75 1024.1
20180422100311 2 353 1.6 4.8 0.00 0.00 0.00 75 1024.1
20180422095811 2 343 3.2 4.8 0.00 0.00 0.00 75 1024.2
20180422095311 2 352 3.2 4.8 0.00 0.00 0.00 75 1024.2
20180422094810 2 350 3.2 4.8 0.00 0.00 0.00 75 1024.2
20180422094310 2 358 1.6 3.2 0.00 0.00 0.00 74 1024.2
20180422093810 2 357 1.6 4.8 0.00 0.00 0.00 74 1024.2
20180422093310 2 344 3.2 8.0 0.00 0.00 0.00 73 1024.2
20180422092810 3 349 3.2 3.2 0.00 0.00 0.00 73 1024.1
20180422092310 3 342 3.2 4.8 0.00 0.00 0.00 72 1024.1
20180422091810 3 1 1.6 4.8 0.00 0.00 0.00 70 1024.2
20180422091310 3 351 3.2 4.8 0.00 0.00 0.00 69 1024.2
20180422090810 3 337 3.2 4.8 0.00 0.00 0.00 68 1024.3
20180422090310 3 349 3.2 4.8 0.00 0.00 0.00 68 1024.2
20180422085810 3 0 1.6 4.8 0.00 0.00 0.00 67 1024.1
20180422085311 3 332 0.0 0.0 0.00 0.00 0.00 68 1024.1
20180422084810 3 332 0.0 0.0 0.00 0.00 0.00 67 1024.1
20180422084308 3 332 0.0 0.0 0.00 0.00 0.00 67 1024.0
20180422083808 3 332 0.0 0.0 0.00 0.00 0.00 67 1023.9
20180422083308 3 332 0.0 0.0 0.00 0.00 0.00 68 1023.9
20180422082808 3 332 0.0 0.0 0.00 0.00 0.00 68 1023.9
20180422082308 3 332 0.0 0.0 0.00 0.00 0.00 68 1023.8
20180422081808 3 332 0.0 0.0 0.00 0.00 0.00 68 1023.8
20180422081308 4 332 0.0 0.0 0.00 0.00 0.00 68 1023.8
20180422080808 4 332 0.0 0.0 0.00 0.00 0.00 68 1023.7
20180422080308 4 332 0.0 0.0 0.00 0.00 0.00 68 1023.7
20180422075808 4 332 0.0 0.0 0.00 0.00 0.00 68 1023.7
20180422075308 4 342 1.6 3.2 0.00 0.00 0.00 68 1023.7
20180422074808 4 25 0.0 0.0 0.00 0.00 0.00 68 1023.7
20180422074308 4 10 0.0 0.0 0.00 0.00 0.00 68 1023.8
20180422073808 5 3 1.6 4.8 0.00 0.00 0.00 67 1023.8
20180422073308 5 354 0.0 0.0 0.00 0.00 0.00 66 1023.9
20180422072808 5 358 0.0 3.2 0.00 0.00 0.00 65 1024.1
20180422072308 5 351 1.6 4.8 0.00 0.00 0.00 64 1024.1
20180422071808 5 10 0.0 3.2 0.00 0.00 0.00 64 1024.1
20180422071308 6 358 1.6 3.2 0.00 0.00 0.00 64 1024.2
20180422070808 6 343 0.0 0.0 0.00 0.00 0.00 64 1024.2
20180422070308 6 343 0.0 0.0 0.00 0.00 0.00 63 1024.3
20180422065808 6 21 0.0 0.0 0.00 0.00 0.00 62 1024.3
20180422065308 6 21 0.0 0.0 0.00 0.00 0.00 60 1024.3
20180422064808 6 21 0.0 0.0 0.00 0.00 0.00 59 1024.4
20180422064308 6 21 0.0 0.0 0.00 0.00 0.00 59 1024.4
20180422063808 6 21 0.0 0.0 0.00 0.00 0.00 59 1024.5
20180422063308 7 21 0.0 0.0 0.00 0.00 0.00 59 1024.5
20180422062808 7 21 0.0 0.0 0.00 0.00 0.00 60 1024.6
20180422062308 7 21 0.0 0.0 0.00 0.00 0.00 59 1024.7
20180422061813 7 21 0.0 0.0 0.00 0.00 0.00 60 1024.7
20180422061313 7 21 0.0 0.0 0.00 0.00 0.00 60 1024.7
20180422060813 7 21 0.0 0.0 0.00 0.00 0.00 60 1024.8
20180422060312 7 21 0.0 0.0 0.00 0.00 0.00 60 1024.9
20180422055812 7 21 0.0 0.0 0.00 0.00 0.00 60 1024.9
20180422055312 7 21 0.0 0.0 0.00 0.00 0.00 60 1024.9
20180422054812 7 21 0.0 0.0 0.00 0.00 0.00 60 1024.8
20180422054312 7 21 0.0 0.0 0.00 0.00 0.00 60 1024.8
20180422053812 7 21 0.0 0.0 0.00 0.00 0.00 61 1024.7
20180422053312 7 21 0.0 0.0 0.00 0.00 0.00 61 1024.8
20180422052812 7 21 0.0 0.0 0.00 0.00 0.00 62 1024.8
20180422052312 7 21 0.0 0.0 0.00 0.00 0.00 62 1024.7
20180422051812 7 21 0.0 0.0 0.00 0.00 0.00 62 1024.8
20180422051312 7 36 0.0 3.2 0.00 0.00 0.00 61 1025.0
20180422050812 7 43 3.2 3.2 0.00 0.00 0.00 61 1024.9
20180422050312 7 32 3.2 4.8 0.00 0.00 0.00 60 1024.9
20180422045812 7 34 3.2 8.0 0.00 0.00 0.00 59 1024.9
20180422045312 7 28 0.0 0.0 0.00 0.00 0.00 58 1024.9
20180422044812 7 28 0.0 0.0 0.00 0.00 0.00 58 1024.9
20180422044312 7 28 0.0 0.0 0.00 0.00 0.00 58 1024.9
20180422043812 7 28 0.0 0.0 0.00 0.00 0.00 57 1024.8
20180422043312 7 28 0.0 0.0 0.00 0.00 0.00 56 1024.9
20180422042812 7 28 0.0 0.0 0.00 0.00 0.00 56 1024.8
20180422042312 7 28 0.0 0.0 0.00 0.00 0.00 56 1024.9
20180422041812 7 28 0.0 0.0 0.00 0.00 0.00 56 1024.9
20180422041312 7 28 0.0 0.0 0.00 0.00 0.00 56 1024.9
20180422040812 7 28 0.0 0.0 0.00 0.00 0.00 56 1025.0
20180422040312 8 28 0.0 0.0 0.00 0.00 0.00 56 1025.0
20180422035812 8 28 0.0 0.0 0.00 0.00 0.00 56 1025.0
20180422035312 8 28 0.0 0.0 0.00 0.00 0.00 55 1024.9
20180422034812 8 28 0.0 0.0 0.00 0.00 0.00 55 1024.9
20180422034312 8 28 0.0 0.0 0.00 0.00 0.00 56 1024.8
20180422033812 8 28 0.0 0.0 0.00 0.00 0.00 56 1024.9
20180422033312 8 42 1.6 1.6 0.00 0.00 0.00 56 1024.9
20180422032812 8 46 1.6 4.8 0.00 0.00 0.00 57 1024.9
20180422032311 7 40 1.6 3.2 0.00 0.00 0.00 57 1024.9
20180422031811 7 37 3.2 4.8 0.00 0.00 0.00 57 1024.9
20180422031311 8 41 3.2 8.0 0.00 0.00 0.00 57 1024.9
20180422030811 7 42 3.2 4.8 0.00 0.00 0.00 57 1024.9
20180422030311 7 33 4.8 8.0 0.00 0.00 0.00 57 1024.8
20180422025811 7 30 3.2 8.0 0.00 0.00 0.00 58 1024.9
20180422025310 8 34 3.2 8.0 0.00 0.00 0.00 58 1024.9
20180422024809 8 28 1.6 3.2 0.00 0.00 0.00 58 1024.9
20180422024309 8 22 1.6 4.8 0.00 0.00 0.00 57 1024.9
20180422023809 8 17 0.0 0.0 0.00 0.00 0.00 56 1024.9
20180422023313 8 35 0.0 1.6 0.00 0.00 0.00 56 1025.0
20180422022813 8 35 0.0 0.0 0.00 0.00 0.00 55 1024.9
20180422022312 8 35 0.0 0.0 0.00 0.00 0.00 54 1024.8
20180422021811 8 43 0.0 3.2 0.00 0.00 0.00 54 1024.7
20180422021311 8 32 1.6 1.6 0.00 0.00 0.00 55 1024.6
20180422020811 8 42 4.8 9.7 0.00 0.00 0.00 55 1024.6
20180422020311 8 37 0.0 0.0 0.00 0.00 0.00 56 1024.6
20180422015811 8 51 3.2 4.8 0.00 0.00 0.00 56 1024.6
20180422015311 8 29 1.6 1.6 0.00 0.00 0.00 56 1024.6
20180422014810 8 33 3.2 4.8 0.00 0.00 0.00 57 1024.6
20180422014311 8 17 1.6 8.0 0.00 0.00 0.00 59 1024.6
20180422013811 8 43 3.2 3.2 0.00 0.00 0.00 58 1024.5
20180422013310 7 32 0.0 0.0 0.00 0.00 0.00 61 1024.5
20180422012810 7 32 0.0 0.0 0.00 0.00 0.00 61 1024.5
20180422012310 7 32 0.0 0.0 0.00 0.00 0.00 61 1024.4
20180422011809 7 32 0.0 0.0 0.00 0.00 0.00 61 1024.5
20180422011309 8 32 0.0 0.0 0.00 0.00 0.00 60 1024.4
20180422010809 8 32 0.0 0.0 0.00 0.00 0.00 60 1024.5
20180422010309 8 32 0.0 0.0 0.00 0.00 0.00 59 1024.4
20180422005809 8 32 0.0 0.0 0.00 0.00 0.00 59 1024.4
20180422005309 8 32 0.0 0.0 0.00 0.00 0.00 59 1024.4
20180422004809 8 32 0.0 0.0 0.00 0.00 0.00 59 1024.4
20180422004309 8 32 0.0 0.0 0.00 0.00 0.00 58 1024.4
20180422003809 8 32 0.0 0.0 0.00 0.00 0.00 59 1024.4
20180422003309 8 32 0.0 0.0 0.00 0.00 0.00 58 1024.4
20180422002808 8 20 0.0 0.0 0.00 0.00 0.00 58 1024.4
20180422002308 8 24 0.0 1.6 0.00 0.00 0.00 58 1024.4
20180422001808 8 27 0.0 0.0 0.00 0.00 0.00 58 1024.3
20180422001313 8 39 1.6 3.2 0.00 0.00 0.00 58 1024.4
20180422000812 8 35 0.0 3.2 0.00 0.00 0.00 58 1024.3
20180422000312 8 18 0.0 1.6 0.00 0.00 0.00 58 1024.3
20180421235812 8 32 1.6 4.8 0.00 0.00 0.00 58 1024.3
20180421235312 8 37 3.2 3.2 0.00 0.00 0.00 58 1024.3
20180421234812 8 30 3.2 4.8 0.00 0.00 0.00 58 1024.2
20180421234311 8 25 1.6 8.0 0.00 0.00 0.00 58 1024.3
20180421233811 8 34 0.0 4.8 0.00 0.00 0.00 58 1024.2
20180421233311 8 17 1.6 4.8 0.00 0.00 0.00 57 1024.2
20180421232811 8 45 1.6 1.6 0.00 0.00 0.00 57 1024.2
20180421232311 8 23 1.6 8.0 0.00 0.00 0.00 57 1024.2
20180421231810 8 28 3.2 4.8 0.00 0.00 0.00 56 1024.2
20180421231310 8 23 1.6 8.0 0.00 0.00 0.00 56 1024.2
20180421230810 8 23 1.6 8.0 0.00 0.00 0.00 56 1024.3
20180421230310 8 27 0.0 3.2 0.00 0.00 0.00 56 1024.4
20180421225809 8 356 1.6 1.6 0.00 0.00 0.00 56 1024.2
20180421225309 8 29 3.2 8.0 0.00 0.00 0.00 55 1023.9
20180421224809 8 23 0.0 0.0 0.00 0.00 0.00 55 1023.9
20180421224309 8 356 3.2 8.0 0.00 0.00 0.00 55 1023.8
20180421223809 9 21 1.6 3.2 0.00 0.00 0.00 55 1023.9
20180421223309 8 21 0.0 0.0 0.00 0.00 0.00 55 1024.1
20180421222809 8 334 0.0 3.2 0.00 0.00 0.00 55 1024.2
20180421222309 9 355 0.0 3.2 0.00 0.00 0.00 55 1024.4
20180421221808 8 330 1.6 1.6 0.00 0.00 0.00 55 1024.3
20180421221308 9 27 0.0 0.0 0.00 0.00 0.00 55 1024.1
20180421220808 9 30 3.2 8.0 0.00 0.00 0.00 55 1024.1
20180421220308 8 6 0.0 4.8 0.00 0.00 0.00 55 1024.1
20180421215808 8 3 0.0 0.0 0.00 0.00 0.00 56 1024.2
20180421215308 8 38 0.0 0.0 0.00 0.00 0.00 56 1024.2
20180421214811 8 49 1.6 3.2 0.00 0.00 0.00 56 1024.2
20180421214311 8 60 3.2 4.8 0.00 0.00 0.00 56 1024.2
20180421213810 8 45 3.2 4.8 0.00 0.00 0.00 56 1024.1
20180421213310 8 49 8.0 9.7 0.00 0.00 0.00 56 1024.2
20180421212810 8 53 4.8 8.0 0.00 0.00 0.00 56 1024.3
20180421212310 8 50 4.8 8.0 0.00 0.00 0.00 56 1024.2
20180421211810 8 47 8.0 9.7 0.00 0.00 0.00 57 1024.2
20180421211310 8 62 3.2 9.7 0.00 0.00 0.00 57 1024.3
20180421210810 8 34 8.0 9.7 0.00 0.00 0.00 57 1024.4
20180421210310 8 103 1.6 1.6 0.00 0.00 0.00 58 1024.4
20180421205810 8 30 3.2 4.8 0.00 0.00 0.00 56 1024.3
20180421205310 8 50 3.2 8.0 0.00 0.00 0.00 58 1024.4
20180421204810 8 37 3.2 9.7 0.00 0.00 0.00 58 1024.4
20180421204310 8 39 3.2 9.7 0.00 0.00 0.00 58 1024.5
20180421203810 8 40 4.8 11.3 0.00 0.00 0.00 58 1024.5
20180421203310 8 41 4.8 11.3 0.00 0.00 0.00 58 1024.5
20180421202810 8 15 4.8 9.7 0.00 0.00 0.00 58 1024.5
20180421202310 8 49 8.0 9.7 0.00 0.00 0.00 58 1024.5
20180421201808 8 41 8.0 11.3 0.00 0.00 0.00 59 1024.6
20180421201308 8 49 0.0 0.0 0.00 0.00 0.00 59 1024.6
20180421200812 8 13 1.6 4.8 0.00 0.00 0.00 60 1024.6
20180421200312 8 35 0.0 0.0 0.00 0.00 0.00 61 1024.7
20180421195812 8 26 4.8 9.7 0.00 0.00 0.00 61 1024.9
20180421195312 8 34 9.7 14.5 0.00 0.00 0.00 60 1025.0
20180421194812 8 44 4.8 9.7 0.00 0.00 0.00 60 1025.1
20180421194312 8 14 4.8 8.0 0.00 0.00 0.00 60 1025.2
20180421193812 8 343 0.0 0.0 0.00 0.00 0.00 61 1025.2
20180421193312 8 323 0.0 0.0 0.00 0.00 0.00 61 1025.3
20180421192812 8 347 1.6 9.7 0.00 0.00 0.00 61 1025.4
20180421192312 8 6 1.6 8.0 0.00 0.00 0.00 60 1025.5
20180421191812 8 8 0.0 0.0 0.00 0.00 0.00 62 1025.5
20180421191312 8 8 0.0 0.0 0.00 0.00 0.00 62 1025.6
20180421190812 8 13 4.8 8.0 0.00 0.00 0.00 60 1025.7
20180421190311 8 51 1.6 4.8 0.00 0.00 0.00 60 1025.7
20180421185811 8 33 1.6 4.8 0.00 0.00 0.00 60 1025.6
20180421185311 8 15 3.2 8.0 0.00 0.00 0.00 58 1025.6
20180421184811 8 21 3.2 8.0 0.00 0.00 0.00 55 1025.6
20180421184311 8 47 0.0 0.0 0.00 0.00 0.00 47 1025.6
20180421183811 8 47 0.0 0.0 0.00 0.00 0.00 47 1025.6
20180421183311 8 43 0.0 1.6 0.00 0.00 0.00 48 1025.6
20180421182811 8 42 0.0 0.0 0.00 0.00 0.00 49 1025.6
20180421182311 8 42 0.0 0.0 0.00 0.00 0.00 49 1025.7
20180421181811 8 42 0.0 0.0 0.00 0.00 0.00 49 1025.6
20180421181311 8 42 0.0 0.0 0.00 0.00 0.00 49 1025.7
20180421180811 8 42 0.0 0.0 0.00 0.00 0.00 50 1025.7
20180421180310 8 71 1.6 1.6 0.00 0.00 0.00 50 1025.6
20180421175810 8 42 1.6 3.2 0.00 0.00 0.00 51 1025.7
20180421175310 8 44 1.6 8.0 0.00 0.00 0.00 51 1025.7
20180421174810 8 40 3.2 4.8 0.00 0.00 0.00 51 1025.7
20180421174310 8 56 0.0 0.0 0.00 0.00 0.00 52 1026.0
20180421173810 8 62 0.0 0.0 0.00 0.00 0.00 52 1026.0
20180421173310 7 72 4.8 11.3 0.00 0.00 0.00 52 1026.2
20180421172809 7 99 8.0 11.3 0.00 0.00 0.00 52 1026.3
20180421172309 7 85 1.6 8.0 0.00 0.00 0.00 53 1026.2
20180421171809 7 99 3.2 11.3 0.00 0.00 0.00 52 1026.2
20180421171309 7 41 0.0 0.0 0.00 0.00 0.00 53 1026.3
20180421170810 7 94 3.2 4.8 0.00 0.00 0.00 52 1026.4
20180421170309 7 90 9.7 20.9 0.00 0.00 0.00 52 1026.4
20180421165809 7 99 8.0 4.8 0.00 0.00 0.00 52 1026.4
20180421165309 7 104 8.0 9.7 0.00 0.00 0.00 52 1026.2
20180421164809 7 88 9.7 14.5 0.00 0.00 0.00 52 1026.2
20180421164309 7 66 4.8 11.3 0.00 0.00 0.00 52 1026.3
20180421163809 7 73 3.2 4.8 0.00 0.00 0.00 52 1026.2
20180421163309 7 89 8.0 12.9 0.00 0.00 0.00 52 1026.2
20180421162809 7 85 9.7 11.3 0.00 0.00 0.00 52 1026.2
20180421162309 7 57 8.0 8.0 0.00 0.00 0.00 52 1026.1
20180421161809 7 82 9.7 14.5 0.00 0.00 0.00 53 1026.2
20180421161309 7 80 8.0 11.3 0.00 0.00 0.00 54 1026.3
20180421160809 7 89 4.8 9.7 0.00 0.00 0.00 55 1026.2
20180421160309 7 66 4.8 4.8 0.00 0.00 0.00 57 1026.4
20180421155809 7 80 8.0 14.5 0.00 0.00 0.00 57 1026.4
20180421155313 7 53 3.2 8.0 0.00 0.00 0.00 58 1026.3
20180421154813 7 60 4.8 9.7 0.00 0.00 0.00 58 1026.1
20180421154313 7 58 3.2 9.7 0.00 0.00 0.00 60 1026.0
20180421153813 7 39 3.2 8.0 0.00 0.00 0.00 61 1026.0
20180421153313 7 59 0.0 0.0 0.00 0.00 0.00 62 1026.0
20180421152813 7 59 0.0 0.0 0.00 0.00 0.00 62 1025.9
20180421152313 7 59 0.0 0.0 0.00 0.00 0.00 62 1025.8
20180421151813 7 59 0.0 0.0 0.00 0.00 0.00 63 1025.9
20180421151313 7 59 0.0 0.0 0.00 0.00 0.00 63 1025.6
20180421150812 6 59 0.0 0.0 0.00 0.00 0.00 62 1025.6
20180421150312 6 59 0.0 0.0 0.00 0.00 0.00 62 1025.6
20180421145812 6 59 0.0 0.0 0.00 0.00 0.00 62 1025.7
20180421145312 6 59 0.0 0.0 0.00 0.00 0.00 62 1025.9
20180421144812 6 59 0.0 0.0 0.00 0.00 0.00 62 1026.1
20180421144312 6 59 0.0 0.0 0.00 0.00 0.00 62 1026.2
20180421143811 6 59 0.0 0.0 0.00 0.00 0.00 63 1026.2
20180421143311 6 59 0.0 0.0 0.00 0.00 0.00 62 1026.2
20180421142811 6 59 0.0 0.0 0.00 0.00 0.00 62 1026.3
20180421142311 6 59 0.0 0.0 0.00 0.00 0.00 62 1026.4
20180421141811 7 59 0.0 0.0 0.00 0.00 0.00 60 1026.3
20180421141311 7 59 0.0 0.0 0.00 0.00 0.00 60 1026.4
20180421140811 6 59 0.0 0.0 0.00 0.00 0.00 60 1026.6
20180421140310 7 59 0.0 0.0 0.00 0.00 0.00 60 1026.5
20180421135810 7 59 0.0 0.0 0.00 0.00 0.00 60 1026.4
20180421135309 7 59 0.0 0.0 0.00 0.00 0.00 61 1026.4
20180421134809 7 59 0.0 0.0 0.00 0.00 0.00 61 1026.3
20180421134309 7 59 0.0 0.0 0.00 0.00 0.00 61 1026.3
20180421133809 7 59 0.0 0.0 0.00 0.00 0.00 61 1026.2
20180421133309 7 59 0.0 0.0 0.00 0.00 0.00 61 1026.2
20180421132809 7 59 0.0 0.0 0.00 0.00 0.00 61 1026.2
20180421132309 7 59 0.0 0.0 0.00 0.00 0.00 62 1026.2
20180421131813 7 59 0.0 0.0 0.00 0.00 0.00 62 1026.1
20180421131313 6 59 0.0 0.0 0.00 0.00 0.00 63 1026.2
20180421130812 6 59 0.0 0.0 0.00 0.00 0.00 64 1026.1
20180421130312 6 59 0.0 0.0 0.00 0.00 0.00 64 1026.0
20180421125812 6 59 0.0 0.0 0.00 0.00 0.00 65 1025.9
20180421125312 6 59 0.0 0.0 0.00 0.00 0.00 65 1025.9
20180421124812 6 59 0.0 0.0 0.00 0.00 0.00 65 1025.7
20180421124312 6 59 0.0 0.0 0.00 0.00 0.00 65 1025.7
20180421123812 6 59 0.0 0.0 0.00 0.00 0.00 65 1025.8
20180421123312 6 59 0.0 0.0 0.00 0.00 0.00 65 1025.9
20180421122812 6 59 0.0 0.0 0.00 0.00 0.00 65 1025.7
20180421122312 6 59 0.0 0.0 0.00 0.00 0.00 66 1025.7
20180421121812 6 59 0.0 0.0 0.00 0.00 0.00 66 1025.8